JA3VQW-13 Weather Reports


time (UTC)temp
C
wind
direction
speed
KPH
gust
KPH
rain 1hr
cm
rain 24hr
cm
rain mn
cm
humidity
%
barometer
mb
20260831143758 29 135 0.0 0.0 0.00 0.00 0.00 50 1005.0
20260831143513 29 135 0.0 0.0 0.00 0.00 0.00 50 1005.0
20260831142014 30 135 0.0 0.0 0.00 0.00 0.00 50 1005.0
20260831140759 30 135 0.0 0.0 0.00 0.00 0.00 50 1005.0
20260831140514 30 135 0.0 0.0 0.00 0.00 0.00 49 1005.0
20260831135014 30 135 0.0 0.0 0.00 0.00 0.00 49 1005.0
20260831133759 30 135 0.0 0.0 0.00 0.00 0.00 49 1005.0
20260831133514 30 135 0.0 0.0 0.00 0.00 0.00 49 1005.0
20260831130758 30 135 0.0 0.0 0.00 0.00 0.00 47 1004.0
20260831123758 30 135 0.0 0.0 0.00 0.00 0.00 45 1004.0
20260831123514 30 135 0.0 0.0 0.00 0.00 0.00 45 1004.0
20260831122012 30 135 0.0 0.0 0.00 0.00 0.00 44 1004.0
20260831120757 30 135 0.0 0.0 0.00 0.00 0.00 44 1004.0
20260831120513 30 135 0.0 0.0 0.00 0.00 0.00 44 1004.0
20260831115013 30 135 0.0 0.0 0.00 0.00 0.00 47 1004.0
20260831113758 29 135 4.8 8.0 0.00 0.00 0.00 48 1004.0
20260831113513 29 135 3.2 8.0 0.00 0.00 0.00 48 1004.0
20260831112014 29 135 4.8 9.7 0.00 0.00 0.00 47 1004.0
20260831110759 30 135 3.2 9.7 0.00 0.00 0.00 45 1004.0
20260831110514 30 135 1.6 3.2 0.00 0.00 0.00 45 1004.0
20260831105013 30 135 0.0 0.0 0.00 0.00 0.00 45 1004.0
20260831103757 30 135 1.6 4.8 0.00 0.00 0.00 46 1004.0
20260831103513 30 135 0.0 3.2 0.00 0.00 0.00 46 1004.0
20260831102013 30 135 3.2 12.9 0.00 0.00 0.00 45 1003.0
20260831100759 30 135 1.6 9.7 0.00 0.00 0.00 44 1003.0
20260831100514 30 135 0.0 4.8 0.00 0.00 0.00 44 1003.0
20260831095012 31 135 0.0 9.7 0.00 0.00 0.00 40 1003.0
20260831093757 31 135 4.8 9.7 0.00 0.00 0.00 41 1003.0
20260831093514 31 135 4.8 4.8 0.00 0.00 0.00 41 1003.0
20260831092013 31 135 4.8 9.7 0.00 0.00 0.00 39 1003.0
20260831090758 31 135 0.0 0.0 0.00 0.00 0.00 40 1003.0
20260831090513 31 135 3.2 8.0 0.00 0.00 0.00 40 1003.0
20260831085012 33 90 0.0 8.0 0.00 0.00 0.00 33 1003.0
20260831083757 33 315 0.0 3.2 0.00 0.00 0.00 31 1003.0
20260831083512 33 315 3.2 3.2 0.00 0.00 0.00 31 1003.0
20260831082014 34 135 8.0 12.9 0.00 0.00 0.00 29 1003.0
20260831080757 35 259 3.2 4.8 0.00 0.00 0.00 29 1003.0
20260831080512 35 270 8.0 9.7 0.00 0.00 0.00 28 1003.0
20260831075012 36 270 4.8 8.0 0.00 0.00 0.00 27 1003.0
20260831073758 36 135 3.2 8.0 0.00 0.00 0.00 26 1002.0
20260831073512 36 142 4.8 9.7 0.00 0.00 0.00 26 1002.0
20260831072014 36 221 4.8 9.7 0.00 0.00 0.00 26 1002.0
20260831070758 36 270 8.0 9.7 0.00 0.00 0.00 21 1002.0
20260831065012 37 315 4.8 8.0 0.00 0.00 0.00 20 1002.0
20260831063758 37 315 9.7 12.9 0.00 0.00 0.00 20 1001.0
20260831063513 37 270 4.8 9.7 0.00 0.00 0.00 20 1001.0
20260831062012 38 225 3.2 9.7 0.00 0.00 0.00 21 1001.0
20260831060757 37 180 8.0 9.7 0.00 0.00 0.00 20 1001.0
20260831060512 37 231 4.8 9.7 0.00 0.00 0.00 20 1001.0
20260831055013 38 242 4.8 4.8 0.00 0.00 0.00 20 1002.0
20260831053757 38 270 8.0 12.9 0.00 0.00 0.00 20 1002.0
20260831053512 37 270 4.8 8.0 0.00 0.00 0.00 20 1002.0
20260831052012 38 315 3.2 8.0 0.00 0.00 0.00 19 1001.0
20260831050756 37 270 9.7 8.0 0.00 0.00 0.00 19 1002.0
20260831050512 37 270 11.3 12.9 0.00 0.00 0.00 19 1002.0
20260831045013 38 315 3.2 9.7 0.00 0.00 0.00 18 1002.0
20260831043758 38 270 8.0 12.9 0.00 0.00 0.00 17 1002.0
20260831043513 38 205 3.2 8.0 0.00 0.00 0.00 16 1002.0
20260831042012 38 315 1.6 3.2 0.00 0.00 0.00 17 1002.0
20260831040757 39 315 0.0 0.0 0.00 0.00 0.00 17 1002.0
20260831040512 38 315 1.6 0.0 0.00 0.00 0.00 17 1002.0
20260831035012 38 315 0.0 0.0 0.00 0.00 0.00 18 1002.0
20260831033757 36 315 0.0 0.0 0.00 0.00 0.00 23 1002.0
20260831033512 36 315 0.0 0.0 0.00 0.00 0.00 22 1002.0
20260831032012 38 315 0.0 0.0 0.00 0.00 0.00 19 1002.0
20260831030757 38 315 0.0 0.0 0.00 0.00 0.00 20 1002.0
20260831030512 38 315 0.0 0.0 0.00 0.00 0.00 20 1002.0
20260831025011 38 315 0.0 3.2 0.00 0.00 0.00 20 1003.0
20260831023756 37 315 0.0 0.0 0.00 0.00 0.00 22 1002.0
20260831023511 38 315 0.0 0.0 0.00 0.00 0.00 21 1002.0
20260831022012 37 315 0.0 0.0 0.00 0.00 0.00 25 1003.0
20260831020758 36 315 1.6 4.8 0.00 0.00 0.00 27 1003.0
20260831020513 36 315 0.0 8.0 0.00 0.00 0.00 27 1003.0
20260831015013 35 315 0.0 4.8 0.00 0.00 0.00 27 1003.0
20260831013757 34 315 0.0 3.2 0.00 0.00 0.00 29 1003.0
20260831013512 34 315 0.0 4.8 0.00 0.00 0.00 30 1003.0
20260831012012 33 315 0.0 0.0 0.00 0.00 0.00 31 1003.0
20260831010757 33 315 0.0 0.0 0.00 0.00 0.00 32 1003.0
20260831010513 33 315 0.0 0.0 0.00 0.00 0.00 33 1003.0
20260831005013 32 315 0.0 0.0 0.00 0.00 0.00 36 1003.0
20260831003758 32 315 0.0 0.0 0.00 0.00 0.00 38 1003.0
20260831003513 32 315 0.0 0.0 0.00 0.00 0.00 38 1003.0
20260831002014 32 315 0.0 0.0 0.00 0.00 0.00 38 1003.0
20260831000758 31 315 0.0 0.0 0.00 0.00 0.00 41 1002.0
20260831000513 31 315 0.0 0.0 0.00 0.00 0.00 41 1002.0
20260830235015 31 315 0.0 0.0 0.00 0.00 0.00 42 1003.0
20260830233758 31 315 0.0 0.0 0.00 0.00 0.00 43 1002.0
20260830233539 31 315 0.0 0.0 0.00 0.00 0.00 43 1002.0
20260830232106 30 315 0.0 0.0 0.00 0.00 0.00 44 1003.0
20260830230758 30 315 0.0 0.0 0.00 0.00 0.00 46 1003.0
20260830230513 30 315 0.0 0.0 0.00 0.00 0.00 46 1003.0
20260830225014 30 315 0.0 0.0 0.00 0.00 0.00 49 1002.0
20260830223759 29 315 0.0 0.0 0.00 0.00 0.00 51 1002.0
20260830223514 29 315 0.0 0.0 0.00 0.00 0.00 52 1002.0
20260830222013 28 315 0.0 0.0 0.00 0.00 0.00 57 1002.0
20260830220759 28 315 0.0 0.0 0.00 0.00 0.00 59 1002.0
20260830220514 28 315 0.0 0.0 0.00 0.00 0.00 60 1002.0
20260830215014 27 315 0.0 0.0 0.00 0.00 0.00 63 1002.0
20260830213758 27 315 0.0 0.0 0.00 0.00 0.00 65 1002.0
20260830213513 27 315 0.0 0.0 0.00 0.00 0.00 65 1002.0
20260830212014 27 315 0.0 0.0 0.00 0.00 0.00 66 1002.0
20260830210759 27 315 0.0 0.0 0.00 0.00 0.00 67 1002.0
20260830210514 27 315 0.0 0.0 0.00 0.00 0.00 68 1002.0
20260830205013 27 315 0.0 0.0 0.00 0.00 0.00 68 1002.0
20260830203758 27 315 0.0 0.0 0.00 0.00 0.00 68 1002.0
20260830203514 27 315 0.0 0.0 0.00 0.00 0.00 68 1002.0
20260830202014 27 315 0.0 0.0 0.00 0.00 0.00 67 1002.0
20260830200758 27 315 0.0 0.0 0.00 0.00 0.00 67 1002.0
20260830200513 27 315 0.0 0.0 0.00 0.00 0.00 67 1002.0
20260830195012 27 315 0.0 0.0 0.00 0.00 0.00 66 1001.0
20260830193757 27 315 0.0 0.0 0.00 0.00 0.00 67 1002.0
20260830193513 27 315 0.0 0.0 0.00 0.00 0.00 67 1002.0
20260830192014 27 315 0.0 0.0 0.00 0.00 0.00 66 1001.0
20260830190759 27 315 0.0 0.0 0.00 0.00 0.00 65 1002.0
20260830190514 27 315 0.0 0.0 0.00 0.00 0.00 65 1002.0
20260830185013 27 315 0.0 0.0 0.00 0.00 0.00 64 1001.0
20260830183757 27 315 0.0 0.0 0.00 0.00 0.00 64 1001.0
20260830183512 27 315 0.0 0.0 0.00 0.00 0.00 64 1001.0
20260830182012 27 315 0.0 0.0 0.00 0.00 0.00 64 1001.0
20260830180759 27 315 0.0 0.0 0.00 0.00 0.00 63 1001.0
20260830180514 27 315 0.0 0.0 0.00 0.00 0.00 62 1001.0
20260830175014 27 315 0.0 0.0 0.00 0.00 0.00 62 1001.0
20260830173758 28 315 0.0 0.0 0.00 0.00 0.00 60 1001.0
20260830173513 28 315 0.0 0.0 0.00 0.00 0.00 60 1001.0
20260830172013 28 315 0.0 0.0 0.00 0.00 0.00 57 1001.0
20260830170757 28 315 0.0 0.0 0.00 0.00 0.00 56 1001.0
20260830165012 28 315 0.0 0.0 0.00 0.00 0.00 55 1001.0
20260830163759 28 315 0.0 0.0 0.00 0.00 0.00 54 1001.0
20260830163513 28 315 0.0 0.0 0.00 0.00 0.00 54 1001.0
20260830162012 28 315 0.0 0.0 0.00 0.00 0.00 54 1002.0
20260830160757 28 315 0.0 0.0 0.00 0.00 0.00 52 1001.0
20260830160512 28 315 0.0 0.0 0.00 0.00 0.00 52 1001.0
20260830155012 29 315 0.0 0.0 0.00 0.00 0.00 50 1001.0
20260830153758 29 315 0.0 0.0 0.00 0.00 0.00 49 1001.0
20260830153513 29 315 0.0 0.0 0.00 0.00 0.00 49 1001.0
20260830152013 29 315 0.0 0.0 0.00 0.00 0.00 49 1001.0
20260830150757 29 315 0.0 0.0 0.00 0.00 0.00 48 1001.0
20260830150513 29 315 0.0 0.0 0.00 0.00 0.00 48 1001.0